TimeCST,TemperatureF,Dew PointF,Humidity,Sea Level PressureIn,VisibilityMPH,Wind Direction,Wind SpeedMPH,Gust SpeedMPH,PrecipitationIn,Events,Conditions,WindDirDegrees,DateUTC
12:35 AM,30.2,19.4,64,30.24,10.0,SE,5.8,-,N/A,,Clear,140,2012-12-22 06:35:00
12:55 AM,30.2,19.4,64,30.23,10.0,SE,5.8,-,N/A,,Clear,140,2012-12-22 06:55:00
1:15 AM,30.2,17.6,60,30.22,10.0,SSE,5.8,-,N/A,,Clear,150,2012-12-22 07:15:00
1:35 AM,30.2,19.4,64,30.22,10.0,SSE,4.6,-,N/A,,Clear,150,2012-12-22 07:35:00
1:55 AM,30.2,19.4,64,30.22,10.0,SSE,4.6,-,N/A,,Clear,160,2012-12-22 07:55:00
2:15 AM,32.0,19.4,60,30.21,10.0,South,4.6,-,N/A,,Clear,180,2012-12-22 08:15:00
2:35 AM,28.4,19.4,69,30.21,10.0,South,4.6,-,N/A,,Clear,170,2012-12-22 08:35:00
2:55 AM,30.2,19.4,64,30.21,10.0,South,4.6,-,N/A,,Clear,190,2012-12-22 08:55:00
3:15 AM,30.2,19.4,64,30.21,10.0,South,4.6,-,N/A,,Clear,180,2012-12-22 09:15:00
3:55 AM,30.2,17.6,60,30.20,10.0,SSE,4.6,-,N/A,,Clear,150,2012-12-22 09:55:00
4:15 AM,30.2,17.6,60,30.20,10.0,SSE,5.8,-,N/A,,Clear,160,2012-12-22 10:15:00
4:55 AM,30.2,17.6,60,30.20,10.0,South,4.6,-,N/A,,Clear,170,2012-12-22 10:55:00
5:15 AM,28.4,17.6,64,30.19,10.0,South,4.6,-,N/A,,Clear,170,2012-12-22 11:15:00
5:55 AM,30.2,17.6,60,30.18,10.0,SSE,4.6,-,N/A,,Clear,160,2012-12-22 11:55:00
6:15 AM,32.0,17.6,55,30.19,10.0,South,4.6,-,N/A,,Clear,180,2012-12-22 12:15:00
6:55 AM,32.0,17.6,55,30.18,10.0,South,5.8,-,N/A,,Clear,180,2012-12-22 12:55:00
7:15 AM,32.0,17.6,55,30.18,10.0,South,5.8,-,N/A,,Clear,180,2012-12-22 13:15:00
7:35 AM,33.8,15.8,48,30.18,10.0,South,5.8,-,N/A,,Clear,180,2012-12-22 13:35:00
7:55 AM,35.6,17.6,48,30.18,10.0,South,5.8,-,N/A,,Clear,180,2012-12-22 13:55:00
8:35 AM,41.0,19.4,42,30.18,10.0,South,8.1,-,N/A,,Clear,180,2012-12-22 14:35:00
8:55 AM,42.8,19.4,39,30.18,10.0,South,10.4,-,N/A,,Clear,190,2012-12-22 14:55:00
9:35 AM,46.4,19.4,34,30.18,10.0,South,10.4,-,N/A,,Clear,190,2012-12-22 15:35:00
9:55 AM,48.2,19.4,32,30.18,10.0,South,9.2,-,N/A,,Clear,190,2012-12-22 15:55:00
10:15 AM,51.8,19.4,28,30.18,10.0,SSW,12.7,-,N/A,,Clear,210,2012-12-22 16:15:00
10:55 AM,53.6,19.4,26,30.17,10.0,SW,10.4,-,N/A,,Clear,220,2012-12-22 16:55:00
11:15 AM,55.4,19.4,25,30.16,10.0,SW,12.7,-,N/A,,Clear,230,2012-12-22 17:15:00
11:55 AM,57.2,17.6,21,30.13,10.0,SW,16.1,19.6,N/A,,Clear,220,2012-12-22 17:55:00
12:15 PM,57.2,17.6,21,30.12,10.0,SW,16.1,-,N/A,,Clear,230,2012-12-22 18:15:00
12:55 PM,59.0,15.8,19,30.09,10.0,SSW,13.8,24.2,N/A,,Clear,210,2012-12-22 18:55:00
1:35 PM,60.8,15.8,17,30.07,10.0,SW,13.8,20.7,N/A,,Clear,220,2012-12-22 19:35:00
1:55 PM,60.8,15.8,17,30.06,10.0,SW,18.4,25.3,N/A,,Clear,220,2012-12-22 19:55:00
2:15 PM,60.8,15.8,17,30.05,10.0,SSW,12.7,21.9,N/A,,Clear,200,2012-12-22 20:15:00
2:35 PM,60.8,15.8,17,30.04,10.0,SSW,15.0,21.9,N/A,,Clear,210,2012-12-22 20:35:00
2:55 PM,60.8,17.6,19,30.04,10.0,SW,16.1,20.7,N/A,,Clear,220,2012-12-22 20:55:00
3:15 PM,60.8,15.8,17,30.03,10.0,SSW,12.7,23.0,N/A,,Clear,200,2012-12-22 21:15:00
3:35 PM,59.0,15.8,19,30.04,10.0,SW,11.5,-,N/A,,Clear,220,2012-12-22 21:35:00
3:55 PM,59.0,17.6,20,30.03,10.0,SSW,15.0,19.6,N/A,,Clear,200,2012-12-22 21:55:00
4:55 PM,55.4,17.6,23,30.02,10.0,South,9.2,-,N/A,,Clear,180,2012-12-22 22:55:00
5:15 PM,55.4,17.6,23,30.02,10.0,South,8.1,-,N/A,,Clear,180,2012-12-22 23:15:00
5:35 PM,53.6,19.4,26,30.02,10.0,South,8.1,-,N/A,,Clear,180,2012-12-22 23:35:00
5:55 PM,53.6,19.4,26,30.02,10.0,South,6.9,-,N/A,,Clear,190,2012-12-22 23:55:00
6:15 PM,51.8,19.4,28,30.02,10.0,SSW,8.1,-,N/A,,Clear,200,2012-12-23 00:15:00
6:35 PM,51.8,17.6,26,30.02,10.0,SSW,9.2,-,N/A,,Clear,210,2012-12-23 00:35:00
6:55 PM,51.8,17.6,26,30.02,10.0,SSW,8.1,-,N/A,,Clear,200,2012-12-23 00:55:00
7:15 PM,51.8,17.6,26,30.02,10.0,South,9.2,-,N/A,,Clear,190,2012-12-23 01:15:00
7:35 PM,51.8,17.6,26,30.02,10.0,SSW,10.4,-,N/A,,Clear,200,2012-12-23 01:35:00
7:55 PM,51.8,19.4,28,30.02,10.0,SSW,9.2,-,N/A,,Clear,200,2012-12-23 01:55:00
8:15 PM,51.8,19.4,28,30.02,10.0,SSW,10.4,-,N/A,,Clear,200,2012-12-23 02:15:00
8:35 PM,51.8,19.4,28,30.02,10.0,South,8.1,-,N/A,,Clear,190,2012-12-23 02:35:00
9:15 PM,51.8,21.2,30,30.01,10.0,SSW,10.4,-,N/A,,Clear,200,2012-12-23 03:15:00
9:55 PM,51.8,24.8,35,30.01,10.0,South,8.1,-,N/A,,Clear,190,2012-12-23 03:55:00
10:15 PM,50.0,24.8,37,30.00,10.0,SSW,6.9,-,N/A,,Clear,200,2012-12-23 04:15:00
10:35 PM,48.2,26.6,43,30.00,10.0,SSW,6.9,-,N/A,,Clear,200,2012-12-23 04:35:00
10:55 PM,48.2,26.6,43,30.00,10.0,SSW,6.9,-,N/A,,Clear,200,2012-12-23 04:55:00
11:35 PM,48.2,28.4,46,29.99,10.0,SSW,9.2,-,N/A,,Clear,200,2012-12-23 05:35:00
11:55 PM,50.0,28.4,43,29.98,10.0,SSW,8.1,-,N/A,,Clear,200,2012-12-23 05:55:00